Volver al catálogo

METEOR 2-5 DEB

ActivoPO
NORAD 29292·DEBRIS·🇷🇺 Russia

Lanzado Oct 31, 1979 desde Plesetsk Cosmodrome

Loading…

Próximos Pases (próximas 24 horas)

TLE

EnvejeciendoSource: Space-Track

Época: Sep 9, 2026, 23:23 UTC

1 29292U 79095R   26252.97462016  .00004284  00000-0  11154-2 0  9998
2 29292  81.1856 338.8766 0011192 200.5092 159.5653 14.49440100128820

Sigue METEOR 2-5 DEB en tiempo real con AllMySat

Download on the App Store